WESTFORD NEEDLES, 602

Orbit data source: Space-Track

WESTFORD NEEDLES, 602 is space debris in LEO originally from a launch on Thu, 09 May 1963 UTC launched from the Air Force Western Test Range (AFWTR). Debris objects in space refer to the collection of defunct objects orbiting the Earth. Examples of debris include non-operational satellites, rocket bodies, and fragments generated from explosions, collisions, or faulty payload assembly.

Loading next visibility...
WESTFORD NEEDLES details
Identifier
602, 1963-014E
Orbit
LEO
Last TLE update1 day ago
Origin
Flag of USUSAF SSD (US)
ManufacturerUnknown
MissionSpacecraft
Bus & MotorUnknown
Mass~10 kg wet, ~10 kg dry
Launch date (UTC)
1963-05-09 (62 years ago)
Launch vehicleUnknown
Launch site
Air Force Western Test Range (AFWTR)
Object type
Payload
Rocket body
Debris
Shape & HBRBox, 1.5 m
Radar Cross Section1.575 m², Medium (>0.1 m² and < 1m²)

Expand to show TLE details & history

TLE from 1 day ago
0 WESTFORD NEEDLES
1 00602U 63014E   25014.06993173  .00000054  00000-0  23466-1 0  9993
2 00602  87.3269 238.9668 0035213 199.8372 160.1115  8.67235426952835
Epoch: 2025-01-14T01:40Z
Definitive object data (Epoch: 2025-01-14T01:40:42.101Z)
Latitude-0.00004°
Longitude100.00947°
Altitude3,664.359 km
Speed6.29 km/s
True Right ascension15h 55m 52s
True Declination0° 00' 00"
Sunlit
Object was in daylight at TLE epoch
Visualization TLE readout
Latitude23.98478°
Longitude-81.30265°
Altitude3,605.287 km
Speed6.329 km/s
Apparent Right ascension01h 59m 47s
Apparent Declination0° 09' 20"
Sunlit
Object is in daylight
Visualization observer readout
Local Sidereal Time09:59:46
Azimuth290.204° WNW
Elevation-22.655°
Doppler factor1
Orbital elements
Apogee altitude3,662.066 km
Perigee altitude3,591.605 km
Semi-major axis10,004.972 km
Eccentricity0.0035213
Inclination87.3269°
RAAN238.9668°
Arg. of periapsis199.8372°
True anomaly160.2482°
Mean anomaly160.1115°
Eccentric anomaly160.17991°
Mean motion2.1688 °/min
BSTAR0.023466
Orbital period165.99 mins
Loading maneuver chart data...

WESTFORD NEEDLES Visibility forecast

Observer location: undefined°, undefined

Span
Click to sort rows by Start time (UTC) header in descending order
Start Az.
Max El. time (UTC)
Max El. Az.
Max El.
End time (UTC)
End Az.
34 mins2025-01-15 13:42:55.069Z141.938° SSE2025-01-15 13:59:55.069Z72.382° E37.263°2025-01-15 14:16:55.069Z7.825° NNE
34 mins2025-01-15 16:28:55.069Z210.945° SW2025-01-15 16:44:55.069Z278.935° WNW37.747°2025-01-15 17:02:55.069Z356.106° N
34 mins2025-01-16 01:31:55.069Z4.823° NNE2025-01-16 01:48:55.069Z81.74° E38.764°2025-01-16 02:05:55.069Z153.486° SSE
32 mins2025-01-16 04:18:55.069Z349.052° N2025-01-16 04:33:55.069Z287.214° WNW35.969°2025-01-16 04:50:55.069Z220.059° SW
|